Regional Weather Roundup
Issued by NWS

Home | Current Version | Previous Version | Graphics & Text | Print | Product List | Glossary On
Versions: 1 2 3 4 5 6 7 8 9 10 11 12 13 14 15 16 17 18 19 20 21 22 23 24 25 26 27 28 29 30 31 32 33 34 35 36 37 38 39 40 41 42 43 44 45 46 47 48 49 50
000
ASUS45 KTFX 042004
RWRMT
MONTANA REGIONAL WEATHER ROUNDUP
NATIONAL WEATHER SERVICE GREAT FALLS MT
200 PM MDT FRI SEP 04 2015

NOTE: "FAIR" INDICATES FEW OR NO CLOUDS BELOW 12000 FEET WITH NO
SIGNIFICANT WEATHER AND/OR OBSTRUCTIONS TO VISIBILITY.

MTZ001>007-043-042100-
WEST OF THE DIVIDE

CITY           SKY/WX    TMP DP  RH WIND       PRES   REMARKS
KALISPELL      PTCLDY    63  41  44 NE6       29.94F
MISSOULA       CLOUDY    56  45  66 VRB5      29.96S
BUTTE          CLOUDY    45  42  89 NW6       30.02R
MULLAN PASS    PTSUNNY   52  33  48 VRB3      29.97F
DEER LODGE       N/A     46  45  93 SE5       30.04S
EUREKA           N/A     52  43  71 NW6         N/A
HAMILTON         N/A     54  45  71 N7        29.94F
LIBBY            N/A     61  39  44 W3        29.96F
$$

MTZ008-052>055-042100-
SOUTHWEST MONTANA

CITY           SKY/WX    TMP DP  RH WIND       PRES   REMARKS
BOZEMAN        CLOUDY    58  46  64 CALM      29.95S
DILLON         CLOUDY    51  43  74 VRB3      29.96F
W YELLOWSTONE  MOSUNNY   70  32  24 SW17G31   29.93F
$$

MTZ009-010-012-014-046-048-049-054-042100-
EAST SLOPES AND CENTRAL MONTANA

CITY           SKY/WX    TMP DP  RH WIND       PRES   REMARKS
CUT BANK       LGT RAIN  45  43  93 N18       30.02S FOG
GREAT FALLS    CLOUDY    51  48  89 E6        29.98F
MALMSTROM AFB  CLOUDY    51  50  96 NE6       29.98F
HELENA         CLOUDY    54  47  77 NW5       29.98S
$$

MTZ011-013-016-021-045-047-050-051-042100-
NORTH CENTRAL MONTANA

CITY           SKY/WX    TMP DP  RH WIND       PRES   REMARKS
HAVRE          LGT RAIN  53  51  93 NE7       30.00F
LEWISTOWN      CLOUDY    58  41  53 VRB7      29.97F
N BAR RANCH    CLOUDY    61  45  55 NW10      29.98S
CHINOOK          N/A     54  52  94 NW7       30.02S
FORT BENTON      N/A     52  46  82 E7        30.01S
$$

MTZ017>020-022>027-061-062-042100-
NORTHEAST MONTANA

CITY           SKY/WX    TMP DP  RH WIND       PRES   REMARKS
GLASGOW        SUNNY     75  47  36 NE15G22   29.88S
JORDAN           N/A     71  50  47 N10       29.88F
SIDNEY         CLOUDY    70  54  56 N15         N/A
WOLF POINT     MOSUNNY   77  52  41 NE16G26   29.87S
PLENTYWOOD       N/A     63  48  59 N20G26    29.90F
POPLAR           N/A     72  54  53 NE18G24   29.88S
$$

MTZ028>42-056>058-042100-
SOUTHCENTRAL AND SOUTHEAST MONTANA

CITY           SKY/WX    TMP DP  RH WIND       PRES   REMARKS
BAKER          MOSUNNY   74  58  57 E5        29.87F
BILLINGS       MOSUNNY   66  45  46 VRB7      29.91F
LIVINGSTON     CLOUDY    62  45  53 VRB7      29.94F
MILES CITY     CLOUDY    71  51  49 SE5       29.86F
FORSYTH          N/A     64  46  52 SW9       29.88F
$$

REGIONAL REPORTS...DAKOTAS

CITY           SKY/WX    TMP DP  RH WIND       PRES   REMARKS
WILLISTON      CLOUDY    71  55  56 N17       29.88F
MINOT          CLOUDY    74  64  71 NW13      29.80R
DICKINSON      CLOUDY    70  63  78 N7        29.83S
BISMARCK       CLOUDY    82  70  66 VRB3      29.76F
GRAND FORKS    CLOUDY    82  66  58 SW15G25   29.78R
FARGO          LGT RAIN  78  71  79 S9        29.80S
BUFFALO SD       N/A     86  57  37 SE7       29.77S
RAPID CITY     SUNNY     88  53  30 NE5       29.81F
$$

REGIONAL REPORTS...WYOMING/IDAHO/WASHINGTON

CITY           SKY/WX    TMP DP  RH WIND       PRES   REMARKS
GILLETTE       SUNNY     81  48  31 VRB6      29.88F
SHERIDAN       SUNNY     77  47  34 N8        29.86F
BUFFALO WY     SUNNY     78  45  30 VRB7G17   29.91F
CODY           MOSUNNY   66  48  52 NE5       29.90F
YELLOWSTONE LA   N/A     64  28  25 VRB7      30.03F
IDAHO FALLS    PTSUNNY   70  40  33 CALM      29.84F
SALMON         CLOUDY    50  43  76 CALM      29.94F
BOISE          MOSUNNY   69  42  37 NE3       29.78F
SPOKANE        MOSUNNY   66  29  24 NE13      29.91F
$$

REGIONAL REPORTS...ALBERTA

CITY           SKY/WX    TMP DP  RH WIND       PRES   REMARKS
CALGARY        LGT RAIN  43  39  87 N18       30.12S
$$

REGIONAL REPORTS...SASKATCHEWAN

CITY           SKY/WX    TMP DP  RH WIND       PRES   REMARKS
SWIFT CURRENT  LGT RAIN  52  46  82 NE10      30.04S
$$


USA.gov is the U.S. government's official web portal to all federal, state and local government web resources and services.